User: anonymous   Login
Location: Home
(44.6062°N, 75.6910°W)
Time: 16:29:36
(UTC-04:00)
Language:

Kosmos-931 - Orbit

View from above orbital plane
View from above orbital plane
View from above satellite
View from above satellite

Ground track
Ground track

The orbit data is extracted from the following two-line orbital elements,

1 10150U 77068A   17291.00365446 -.00000603  00000-0  00000+0 0  9992
2 10150  68.7528 234.6826 5486674  49.8570 186.5819  2.00442736295281
Epoch (UTC): 18 October 2017 00:05:15
Eccentricity: 0.5486674
inclination: 68.7528°
perigee height: 5614 km
apogee height: 34771 km
right ascension of ascending node: 234.6826°
argument of perigee: 49.8570°
revolutions per day: 2.00442736
mean anomaly at epoch: 186.5819°
orbit number at epoch: 29528

The dashed part of the orbit path shows where the satellite is in the earth's shadow,  

DLR